Weather reports worldwide

Advertisment
Nürburg/Barweiler, Germany (10506): temperature & dewpoint: 10.08.2018 18:00:00 - 16.08.2018 18:00:00 (CEST)Nürburg/Barweiler, Germany (10506): temperature 5cm & temperature -5cm: 10.08.2018 18:00:00 - 16.08.2018 18:00:00 (CEST)Nürburg/Barweiler, Germany (10506): temperature -20cm & temperature -100cm: 10.08.2018 18:00:00 - 16.08.2018 18:00:00 (CEST)Nürburg/Barweiler, Germany (10506): wind speed & gusts: 10.08.2018 18:00:00 - 16.08.2018 18:00:00 (CEST)Nürburg/Barweiler, Germany (10506): wind direction: 10.08.2018 18:00:00 - 16.08.2018 18:00:00 (CEST)Nürburg/Barweiler, Germany (10506): reduced air pressure: 10.08.2018 18:00:00 - 16.08.2018 18:00:00 (CEST)Nürburg/Barweiler, Germany (10506): visibility: 10.08.2018 18:00:00 - 16.08.2018 18:00:00 (CEST)Nürburg/Barweiler, Germany (10506): precipitation: 10.08.2018 18:00:00 - 16.08.2018 18:00:00 (CEST)
Date & Time tt [°C] td [°C] tt 5cm [°C] tt -5cm [°C] tt -20cm [°C] tt -100cm [°C] ff [km/h] ff [kn] fx [km/h] fx [kn] dd ppp [hPa] vv [km] rr [mm]
16.08.2018 18:00:00 27,1 8,9 28,6 28,8 20,7 18,2 8 4 20 11 WSW 1012,7 32 0,0
16.08.2018 17:00:00 26,9 9,5 28,9 29,2 20,2 18,2 8 4 26 14 WSW 1013,0 28 0,0
16.08.2018 16:00:00 26,2 10,3 28,6 29,1 19,6 18,2 11 6 20 11 W 1013,6 26 0,0
16.08.2018 15:00:00 25,3 9,5 28,2 28,2 19,0 18,2 10 5 22 12 SSW 1014,2 34 0,0
16.08.2018 14:00:00 24,9 11,2 27,9 26,7 18,5 18,3 11 6 22 12 SW 1014,5 24 0,0
16.08.2018 13:00:00 23,5 11,9 27,0 24,8 18,1 18,3 7 4 19 10 WSW 1015,2 24 0,0
16.08.2018 12:00:00 22,0 12,8 24,7 22,9 17,7 18,3 8 5 18 10 WSW 1015,9 29 0,0
16.08.2018 11:00:00 20,5 13,5 23,5 20,7 17,5 18,3 6 3 13 7 W 1016,5 14 0,0
16.08.2018 10:00:00 17,7 12,8 20,7 18,2 17,5 18,3 5 3 8 4 W 1017,2 25 0,0
16.08.2018 09:00:00 17,0 12,7 19,2 15,7 17,6 18,3 4 2 9 5 SSE 1017,3 27 0,0
16.08.2018 08:00:00 13,4 10,4 14,2 14,0 17,8 18,3 3 2 8 4 SW 1018,6 16 0,0
16.08.2018 07:00:00 12,2 11,3 10,8 13,6 18,1 18,3 5 3 9 5 SSW 1018,8 16 0,0
16.08.2018 06:00:00 12,1 11,3 10,3 13,9 18,3 18,3 6 4 8 4 SSE 1018,8 20 0,0
16.08.2018 05:00:00 11,7 10,9 10,2 14,3 18,5 18,3 4 2 5 3 WNW 1019,5 9 0,0
16.08.2018 04:00:00 12,8 11,0 10,9 14,8 18,8 18,3 2 1 4 2 WNW 1019,5 19 0,0
16.08.2018 03:00:00 14,1 11,6 11,0 15,3 19,0 18,3 2 1 8 4 ESE 1019,5 26 0,0
16.08.2018 02:00:00 15,0 11,5 12,0 15,8 19,2 18,3 5 3 6 4 S 1019,5 35 0,0
16.08.2018 01:00:00 15,2 11,5 12,6 16,4 19,5 18,4 5 3 9 5 WSW 1019,8 35 0,0
16.08.2018 00:00:00 16,7 11,4 14,2 17,1 19,6 18,4 6 3 11 6 S 1019,4 41 0,0
15.08.2018 23:00:00 17,8 11,5 15,0 17,9 19,8 18,4 6 3 10 5 SSE 1019,3 43 0,0
15.08.2018 22:00:00 18,0 11,6 16,0 18,9 19,9 18,4 7 4 9 5 S 1019,3 37 0,0
15.08.2018 21:00:00 19,3 11,6 16,7 20,2 19,9 18,4 4 2 8 5 S 1018,9 42 0,0
15.08.2018 20:00:00 20,6 11,3 20,3 21,5 19,8 18,4 6 3 13 7 W 1018,6 47 0,0
15.08.2018 19:00:00 20,7 11,8 20,6 21,9 19,7 18,4 7 4 17 9 WSW 1018,8 48 0,0
15.08.2018 18:00:00 20,8 10,5 21,5 23,0 19,5 18,4 8 5 15 8 W 1019,0 42 0,0
15.08.2018 17:00:00 21,2 11,1 22,9 23,7 19,2 18,4 6 3 12 6 SSW 1019,1 43 0,0
15.08.2018 16:00:00 21,4 11,8 23,7 23,4 18,9 18,4 4 2 11 6 E 1019,1 40 0,0
15.08.2018 15:00:00 20,4 11,1 22,1 22,7 18,6 18,5 5 3 12 7 SW 1019,6 42 0,0
15.08.2018 14:00:00 20,5 11,3 22,4 22,8 18,3 18,5 3 2 8 4 SW 1019,6 47 0,0
15.08.2018 13:00:00 19,0 11,1 20,6 22,8 17,9 18,5 4 2 19 10 NNE 1020,0 43 0,0
15.08.2018 12:00:00 19,1 11,0 23,2 22,2 17,6 18,5 9 5 18 10 W 1020,0 20 0,0
15.08.2018 11:00:00 18,0 11,7 20,9 19,7 17,5 18,5 7 4 16 9 WSW 1020,3 18 0,0
15.08.2018 10:00:00 16,4 11,3 19,0 17,8 17,5 18,5 9 5 16 9 W 1020,3 26 0,0
15.08.2018 09:00:00 15,1 11,2 17,1 15,9 17,5 18,5 7 4 12 6 SSW 1020,1 14 0,0
15.08.2018 08:00:00 13,7 12,0 13,6 14,9 17,7 18,5 5 3 11 6 SSW 1020,4 8 0,0
15.08.2018 07:00:00 13,1 11,9 12,5 14,6 17,8 18,5 6 3 11 6 SSW 1020,0 5 0,0
15.08.2018 06:00:00 13,5 12,5 12,3 15,1 17,9 18,5 7 4 9 5 SSW 1019,6 4,5 0,0
15.08.2018 05:00:00 14,2 12,9 13,7 15,5 18,0 18,5 4 2 9 5 SW 1019,4 4,8 0,0
15.08.2018 04:00:00 14,3 13,2 13,7 15,5 18,1 18,5 5 3 9 5 SSW 1019,5 4,0 0,0
15.08.2018 03:00:00 14,5 13,3 14,0 15,7 18,3 18,6 5 3 9 5 WSW 1019,7 4,3 0,0
15.08.2018 02:00:00 14,6 13,4 13,5 15,7 18,4 18,6 3 2 9 5 SW 1020,0 3,9 0,0
15.08.2018 01:00:00 14,9 13,4 13,1 15,9 18,6 18,6 6 3 12 7 WSW 1019,7 4,5 0,0
15.08.2018 00:00:00 15,5 13,7 13,8 16,5 18,7 18,6 8 4 11 6 WSW 1019,3 5 0,0
14.08.2018 23:00:00 16,2 13,9 15,0 17,2 18,7 18,6 6 3 10 5 W 1018,9 8 0,0
14.08.2018 22:00:00 16,6 14,2 16,2 17,7 18,8 18,6 6 3 13 7 NW 1018,5 8 0,0
14.08.2018 21:00:00 17,0 14,3 16,4 18,1 18,8 18,6 6 3 11 6 W 1017,8 8 0,0
14.08.2018 20:00:00 17,2 14,3 16,7 18,5 18,8 18,6 5 3 11 6 WSW 1017,3 8 0,0
14.08.2018 19:00:00 16,7 14,3 16,0 18,5 18,8 18,6 4 2 21 11 W 1017,4 9 0,1
14.08.2018 18:00:00 17,5 13,1 16,2 19,0 18,7 18,6 16 8 32 17 WNW 1017,1 6 0,0
14.08.2018 17:00:00 19,8 12,7 19,7 20,1 18,5 18,6 16 9 29 16 W 1015,6 32 0,0
14.08.2018 16:00:00 20,2 12,6 21,2 20,5 18,4 18,7 14 8 28 15 W 1015,3 30 0,0
14.08.2018 15:00:00 19,0 13,1 20,2 19,6 18,2 18,7 11 6 27 14 W 1015,5 26 0,0
14.08.2018 14:00:00 18,0 12,3 18,5 19,7 18,1 18,7 16 8 31 17 W 1015,6 27 0,0
14.08.2018 13:00:00 18,0 12,6 19,6 19,0 18,0 18,7 16 8 29 16 W 1015,1 29 0,0
14.08.2018 12:00:00 17,7 13,4 18,4 17,9 17,9 18,7 17 9 29 16 W 1014,8 24 0,0
14.08.2018 11:00:00 15,7 13,2 15,6 17,1 17,9 18,7 15 8 31 17 W 1015,0 15 0,0
14.08.2018 10:00:00 15,3 13,4 15,2 16,7 17,9 18,7 11 6 24 13 W 1014,4 10 0,1
14.08.2018 09:00:00 15,3 13,2 15,6 16,2 18,0 18,7 12 6 21 12 WSW 1013,7 9 0,0
14.08.2018 08:00:00 14,4 12,9 14,2 15,5 18,1 18,7 11 6 19 11 WSW 1013,4 8 0,0
14.08.2018 07:00:00 14,0 12,7 13,7 15,3 18,2 18,7 11 6 21 11 WSW 1012,9 9 0,0
14.08.2018 06:00:00 14,1 12,9 13,7 15,3 18,4 18,7 12 7 22 12 WSW 1012,3 8 0,0
14.08.2018 05:00:00 13,7 12,6 13,1 15,2 18,5 18,7 7 4 16 9 SSW 1012,0 8 0,0
14.08.2018 04:00:00 13,8 12,6 12,6 15,5 18,6 18,7 10 5 17 9 SW 1011,9 9 0,0
14.08.2018 03:00:00 14,4 13,4 13,9 15,9 18,8 18,7 8 4 16 9 SW 1011,7 14 0,1
14.08.2018 02:00:00 14,6 13,4 14,0 15,9 19,0 18,7 11 6 20 11 SW 1011,5 13 0,0
14.08.2018 01:00:00 14,3 13,2 13,5 15,9 19,2 18,7 11 6 18 10 SW 1011,1 23 0,0
14.08.2018 00:00:00 14,4 13,3 13,2 16,2 19,3 18,8 10 6 18 10 SW 1010,7 25 0,0
13.08.2018 23:00:00 14,6 13,4 13,7 16,5 19,5 18,8 9 5 15 8 SSW 1010,3 28 0,0
13.08.2018 22:00:00 14,7 13,6 13,5 17,1 19,7 18,8 7 4 14 8 SSW 1009,9 26 0,0
13.08.2018 21:00:00 15,4 13,8 14,2 18,1 19,8 18,8 10 6 24 13 WSW 1009,2 31 0,0
13.08.2018 20:00:00 16,3 14,6 16,4 18,9 19,8 18,8 13 7 25 13 WSW 1008,5 19 1,0
13.08.2018 19:00:00 16,2 13,9 16,8 19,2 19,9 18,8 14 7 28 15 WSW 1008,2 29 0,4
13.08.2018 18:00:00 15,7 13,0 14,9 19,8 19,8 18,8 18 10 40 21 WSW 1008,5 22 4,2
13.08.2018 17:00:00 19,5 12,1 19,7 21,2 19,7 18,8 14 8 36 19 WSW 1007,4 52 0,0
13.08.2018 16:00:00 19,4 12,8 20,4 21,9 19,5 18,8 16 9 34 19 SW 1007,2 42 0,0
13.08.2018 15:00:00 18,8 12,6 19,9 21,7 19,3 18,8 21 11 44 24 SW 1007,5 29 0,0
13.08.2018 14:00:00 19,0 13,8 20,2 22,2 19,1 18,8 16 9 34 18 SSW 1007,5 37 0,0
13.08.2018 13:00:00 18,2 14,0 19,9 21,3 18,9 18,8 16 9 29 16 SW 1008,0 22 0,0
13.08.2018 12:00:00 18,0 14,3 18,8 19,8 18,9 18,8 14 7 28 15 SSW 1008,0 29 0,0
13.08.2018 11:00:00 15,1 13,8 15,3 17,1 19,0 18,8 6 4 13 7 S 1008,8 22 0,0
13.08.2018 10:00:00 14,8 14,1 15,1 16,6 19,1 18,9 3 2 25 13 W 1008,9 16 1,2
13.08.2018 09:00:00 14,3 13,1 13,8 16,3 19,3 18,9 14 8 27 15 SE 1009,1 3,6 1,6
13.08.2018 08:00:00 14,4 12,5 13,6 16,3 19,5 18,9 5 3 26 14 E 1008,2 36 1,1
13.08.2018 07:00:00 16,3 10,3 15,6 16,4 19,7 18,9 12 7 20 11 WSW 1008,6 52 0,0
13.08.2018 06:00:00 17,2 9,5 15,6 16,4 19,9 18,9 7 4 14 7 S 1007,6 50 0,0
13.08.2018 05:00:00 17,4 7,2 14,5 16,4 20,1 18,9 6 3 11 6 S 1007,7 55 0,0
13.08.2018 04:00:00 18,3 7,2 15,0 16,7 20,4 18,9 6 4 11 6 S 1008,2 62 0,0
13.08.2018 03:00:00 17,5 7,1 13,5 17,1 20,7 18,9 6 3 13 7 S 1009,0 60 0,0
13.08.2018 02:00:00 18,7 6,7 15,8 17,7 21,0 18,9 6 4 13 7 S 1009,4 62 0,0
13.08.2018 01:00:00 17,8 6,7 14,7 18,3 21,2 19,0 4 2 12 7 S 1010,3 67 0,0
13.08.2018 00:00:00 18,9 6,7 15,9 19,1 21,5 19,0 8 4 12 6 S 1010,6 66 0,0
12.08.2018 23:00:00 19,4 6,7 16,4 20,1 21,6 19,0 8 4 13 7 S 1010,9 54 0,0
12.08.2018 22:00:00 20,1 6,7 17,4 21,4 21,7 19,0 7 4 12 7 S 1011,2 61 0,0
12.08.2018 21:00:00 21,2 6,5 18,2 23,4 21,7 19,0 5 3 11 6 SSW 1011,0 61 0,0
12.08.2018 20:00:00 23,7 4,8 24,3 25,0 21,6 19,0 5 3 16 9 WSW 1010,5 50 0,0
12.08.2018 19:00:00 23,6 4,7 23,6 26,4 21,3 19,0 8 5 19 11 SW 1011,3 67 0,0
12.08.2018 18:00:00 23,8 4,6 24,4 27,6 20,9 19,0 9 5 26 14 SSW 1011,8 61 0,0
12.08.2018 17:00:00 24,2 3,5 26,7 28,6 20,3 19,1 11 6 21 12 S 1012,4 43 0,0
12.08.2018 16:00:00 24,1 4,2 26,5 29,2 19,7 19,1 8 5 21 12 SSW 1013,1 47 0,0
12.08.2018 15:00:00 23,7 4,3 27,6 28,3 19,1 19,1 8 4 23 13 WSW 1014,0 35 0,0
12.08.2018 14:00:00 22,5 3,7 26,5 27,2 18,6 19,1 11 6 23 13 SSW 1015,0 31 0,0
12.08.2018 13:00:00 21,4 6,1 25,6 25,0 18,1 19,1 11 6 22 12 SW 1015,8 35 0,0
12.08.2018 12:00:00 20,9 7,2 24,3 22,4 17,8 19,1 7 4 23 13 WSW 1016,5 35 0,0
12.08.2018 11:00:00 19,2 6,5 21,9 19,4 17,6 19,1 13 7 25 13 WSW 1017,3 22 0,0
12.08.2018 10:00:00 16,2 8,3 19,1 16,8 17,6 19,1 5 3 8 4 W 1018,1 47 0,0
12.08.2018 09:00:00 14,2 6,3 16,8 14,1 17,8 19,1 4 2 8 5 SSW 1018,7 39 0,0
12.08.2018 08:00:00 9,5 5,4 10,5 12,4 18,1 19,2 5 3 9 5 S 1020,0 44 0,0
12.08.2018 07:00:00 7,9 5,0 8,0 12,1 18,4 19,2 6 3 8 5 WSW 1020,7 34 0,0
12.08.2018 06:00:00 8,3 5,4 5,7 12,5 18,7 19,2 0 0 10 5 N 1020,7 39 0,0
12.08.2018 05:00:00 9,7 5,5 6,9 13,1 19,1 19,2 4 2 9 5 SSW 1021,1 43 0,0
12.08.2018 04:00:00 9,6 5,6 7,0 13,7 19,4 19,2 4 2 9 5 SW 1021,7 43 0,0
12.08.2018 03:00:00 10,4 5,8 7,7 14,3 19,7 19,2 3 2 7 4 WSW 1021,8 40 0,0
12.08.2018 02:00:00 10,5 5,9 8,2 15,1 20,0 19,2 5 3 7 4 SSW 1022,3 49 0,0
12.08.2018 01:00:00 12,7 5,5 9,4 16,0 20,3 19,2 2 1 6 3 E 1022,2 54 0,0
12.08.2018 00:00:00 15,0 5,8 12,2 16,9 20,6 19,3 5 3 7 4 S 1022,1 60 0,0
11.08.2018 23:00:00 13,4 5,8 11,4 18,0 20,8 19,3 5 3 7 4 S 1022,8 55 0,0
11.08.2018 22:00:00 16,5 5,4 12,9 19,5 20,9 19,3 4 2 9 5 W 1022,1 62 0,0
11.08.2018 21:00:00 17,5 5,0 15,2 21,3 20,9 19,3 6 3 17 9 W 1021,9 69 0,0
11.08.2018 20:00:00 18,8 4,5 18,5 23,2 20,8 19,3 13 7 22 12 W 1021,5 68 0,0
11.08.2018 19:00:00 19,4 4,0 20,1 25,3 20,5 19,3 13 7 27 15 W 1021,5 58 0,0
11.08.2018 18:00:00 20,7 4,0 23,2 26,5 20,0 19,4 13 7 25 14 W 1021,3 40 0,0
11.08.2018 17:00:00 20,2 4,2 23,3 26,6 19,6 19,4 11 6 28 15 WNW 1021,6 23 0,0
11.08.2018 16:00:00 20,2 4,1 23,8 26,6 19,1 19,4 11 6 27 15 W 1021,9 25 0,0
11.08.2018 15:00:00 20,2 4,2 25,1 25,7 18,6 19,4 12 6 30 16 W 1022,2 29 0,0
11.08.2018 14:00:00 18,8 4,3 22,9 23,5 18,3 19,4 15 8 31 17 W 1022,5 26 0,0
11.08.2018 13:00:00 17,5 4,5 20,4 21,8 18,0 19,4 14 8 31 17 W 1022,8 28 0,0
11.08.2018 12:00:00 16,4 5,4 18,6 19,7 17,8 19,4 14 7 30 16 WNW 1023,4 40 0,0
11.08.2018 11:00:00 15,7 6,0 17,4 18,2 17,7 19,4 16 8 33 18 W 1023,5 42 0,0
11.08.2018 10:00:00 14,4 8,2 15,2 16,1 17,7 19,4 15 8 29 16 WSW 1023,5 44 0,0
11.08.2018 09:00:00 14,0 8,3 16,2 14,9 17,8 19,5 13 7 26 14 WSW 1023,3 36 0,0
11.08.2018 08:00:00 12,8 8,4 14,0 13,6 18,0 19,5 12 6 21 11 SW 1023,3 38 0,0
11.08.2018 07:00:00 12,1 8,6 11,4 13,3 18,1 19,5 9 5 21 11 WSW 1022,9 44 0,0
11.08.2018 06:00:00 13,0 8,0 12,2 13,6 18,3 19,5 12 6 20 11 WSW 1022,2 53 0,0
11.08.2018 05:00:00 13,4 7,3 12,7 13,4 18,6 19,5 13 7 29 15 SW 1021,8 48 0,0
11.08.2018 04:00:00 13,4 6,7 11,6 13,4 18,8 19,5 15 8 26 14 SW 1021,8 54 0,0
11.08.2018 03:00:00 13,8 6,4 12,3 13,8 19,1 19,5 16 8 29 16 SW 1021,7 57 0,0
11.08.2018 02:00:00 14,5 6,3 12,8 14,2 19,3 19,5 17 9 29 16 SW 1021,7 61 0,0
11.08.2018 01:00:00 14,6 6,8 13,0 14,7 19,6 19,5 13 7 22 12 SW 1021,9 56 0,0
11.08.2018 00:00:00 14,5 6,7 12,8 15,1 19,8 19,5 10 5 21 11 SW 1022,0 50 0,0
10.08.2018 23:00:00 14,2 6,1 12,2 15,7 20,1 19,6 8 4 18 10 SSW 1022,4 58 0,0
10.08.2018 22:00:00 15,3 5,4 13,3 16,7 20,2 19,6 8 5 20 11 SSW 1022,4 56 0,0
10.08.2018 21:00:00 16,5 4,3 14,4 18,1 20,3 19,6 11 6 28 15 SW 1021,9 65 0,0
10.08.2018 20:00:00 18,8 2,2 18,9 19,5 20,4 19,6 17 9 33 18 WSW 1021,4 37 0,0
10.08.2018 19:00:00 19,3 2,5 19,4 20,6 20,3 19,6 16 9 32 17 SW 1021,3 31 0,0
10.08.2018 18:00:00 19,4 4,2 21,4 20,8 20,2 19,6 16 9 28 15 WSW 1021,6 59 0,0

tt = temperature
td = dewpoint
tt 5cm = temperature 5cm
tt -5cm = temperature -5cm
tt -20cm = temperature -20cm
tt -100cm = temperature -100cm
ff = wind speed
fx = gusts
dd = wind direction
ppp = reduced air pressure
vv = visibility
rr = precipitation

Next stations